This is the latest recevied weather packets stored in our database for station/object KC3WWU. If no packets are shown the sender has not sent any weather packets the latest 10 day(s).
| Time | Temp. | Humidity | Pressure | Rain* | Wind** | Luminosity | Snow |
|---|---|---|---|---|---|---|---|
| 1777396371 | 9.44° C | 99% | 1013.9 hPa | 0 mm | - | 88 W/m² | - |
| 1777396067 | 9.44° C | 99% | 1014 hPa | 1.78 mm | - | 87 W/m² | - |
| 1777395763 | 9.44° C | 99% | 1013.8 hPa | 1.78 mm | - | 68 W/m² | - |
| 1777395458 | 9.44° C | 99% | 1013.9 hPa | 0 mm | - | 76 W/m² | - |
| 1777395156 | 9.44° C | 99% | 1014 hPa | 0 mm | - | 86 W/m² | - |
| 1777394853 | 8.89° C | 99% | 1014 hPa | 0 mm | - | 73 W/m² | - |
| 1777394549 | 8.89° C | 99% | 1013.9 hPa | 0 mm | - | 59 W/m² | - |
| 1777394246 | 9.44° C | 99% | 1013.9 hPa | 0 mm | - | 63 W/m² | - |
| 1777393941 | 9.44° C | 98% | 1014 hPa | 0 mm | - | 78 W/m² | - |
| 1777393641 | 8.89° C | 98% | 1013.8 hPa | 0 mm | - | 84 W/m² | - |
| 1777393336 | 8.89° C | 98% | 1013.9 hPa | 0 mm | - | 100 W/m² | - |
| 1777393033 | 9.44° C | 98% | 1014.1 hPa | 0 mm | - | 77 W/m² | - |
| 1777392729 | 8.89° C | 98% | 1014.1 hPa | 0 mm | - | 82 W/m² | - |
| 1777392426 | 8.89° C | 98% | 1014.2 hPa | 0 mm | - | 66 W/m² | - |
| 1777392120 | 8.89° C | 98% | 1014.1 hPa | 0 mm | - | 67 W/m² | - |
| 1777391816 | 9.44° C | 97% | 1014.3 hPa | 0 mm | - | 76 W/m² | - |
| 1777391512 | 8.89° C | 97% | 1014 hPa | 0 mm | - | 104 W/m² | - |
| 1777391208 | 8.89° C | 97% | 1013.9 hPa | 0 mm | - | 93 W/m² | - |
| 1777390904 | 9.44° C | 96% | 1014.2 hPa | 0 mm | - | 92 W/m² | - |
| 1777390602 | 9.44° C | 95% | 1014.2 hPa | 0 mm | - | 65 W/m² | - |
| 1777390298 | 9.44° C | 94% | 1014.4 hPa | 0 mm | - | 58 W/m² | - |
| 1777389993 | 9.44° C | 93% | 1014.3 hPa | 0 mm | - | 63 W/m² | - |
| 1777389691 | 9.44° C | 92% | 1014 hPa | 0 mm | - | 67 W/m² | - |
| 1777389388 | 9.44° C | 92% | 1014.2 hPa | 0 mm | - | 73 W/m² | - |
| 1777389086 | 9.44° C | 93% | 1014.1 hPa | 0 mm | - | 58 W/m² | - |
* Rain latest hour (hover to see other rain measurements)
** Current wind speed in m/s (hover to see current wind gust speed)